Location: Barcelona
(41.3830°N, 2.1830°E)
Time: 00:16:51
(UTC+02:00)

ISS - Pass Details

Date: 22 May 2019
Orbit: 408 x 418 km, 51.6° (Epoch: 26 May)

Event Time Altitude Azimuth Distance (km) Brightness Sun altitude
Rises 01:05:07 0° 304° (NW) 2,357 0.7 -27.5°
Reaches altitude 10° 01:07:55 10° 329° (NNW) 1,496 -0.1 -27.6°
Maximum altitude 01:09:56 15° 6° (N) 1,235 -0.6 -27.7°
Drops below altitude 10° 01:11:57 10° 43° (NE) 1,497 -0.5 -27.8°
Enters shadow 01:12:00 10° 44° (NE) 1,509 -0.5 -27.8°
